EW5170 Weather Reports


time (UTC)temp
C
wind
direction
speed
KPH
gust
KPH
rain 1hr
cm
rain 24hr
cm
rain mn
cm
humidity
%
barometer
mb
20260509234605 31 135 0.0 1.6 0.00 0.00 0.00 53 1005.1
20260509233054 32 144 0.0 1.6 0.00 0.00 0.00 52 1005.0
20260509231553 32 219 0.0 1.6 0.00 0.00 0.00 51 1005.0
20260509230051 32 155 0.0 6.4 0.00 0.00 0.00 50 1005.0
20260509224552 32 202 0.0 1.6 0.00 0.00 0.00 50 1005.1
20260509223050 33 94 0.0 4.8 0.00 0.00 0.00 49 1005.1
20260509221605 33 41 0.0 6.4 0.00 0.00 0.00 48 1005.0
20260509220059 33 121 0.0 3.2 0.00 0.00 0.00 46 1005.0
20260509214544 32 300 0.0 0.0 0.00 0.00 0.00 49 1005.2
20260509213042 32 97 0.0 6.4 0.00 0.00 0.00 49 1005.4
20260509211539 32 163 0.0 4.8 0.00 0.00 0.00 52 1005.5
20260509210040 32 194 0.0 4.8 0.00 0.00 0.00 53 1005.8
20260509204535 31 119 0.0 4.8 0.00 0.00 0.00 54 1006.0
20260509203038 31 105 1.6 8.0 0.00 0.00 0.00 51 1006.2
20260509201530 31 78 0.0 9.7 0.00 0.00 0.00 46 1006.6
20260509200032 31 355 1.6 8.0 0.00 0.00 0.00 41 1007.2
20260509194526 31 122 0.0 8.0 0.00 0.00 0.00 51 1007.3
20260509193025 31 112 1.6 6.4 0.00 0.00 0.00 58 1006.8
20260509191524 31 351 1.6 8.0 0.00 0.00 0.00 58 1006.7
20260509190035 31 360 1.6 11.3 0.00 0.00 0.00 59 1006.8
20260509184531 31 276 1.6 11.3 0.00 0.00 0.00 62 1007.2
20260509183027 31 24 0.0 3.2 0.00 0.00 0.00 59 1007.4
20260509181519 31 71 1.6 8.0 0.00 0.00 0.00 56 1007.6
20260509180014 31 225 0.0 6.4 0.00 0.00 0.00 64 1007.9
20260509174516 30 207 1.6 8.0 0.00 0.00 0.00 65 1007.9
20260509173014 30 252 0.0 4.8 0.00 0.00 0.00 64 1008.0
20260509171510 31 255 1.6 6.4 0.00 0.00 0.00 62 1008.5
20260509170013 31 245 3.2 8.0 0.00 0.00 0.00 65 1008.6
20260509164504 30 287 0.0 8.0 0.00 0.00 0.00 67 1008.4
20260509163105 29 342 0.0 12.9 0.00 0.00 0.00 70 1008.5
20260509161557 29 249 0.0 4.8 0.00 0.00 0.00 72 1008.7
20260509160054 28 213 0.0 8.0 0.00 0.00 0.00 73 1008.4
20260509154548 28 263 0.0 11.3 0.00 0.00 0.00 73 1008.4
20260509153046 28 192 1.6 6.4 0.00 0.00 0.00 72 1008.3
20260509151542 28 214 1.6 12.9 0.00 0.00 0.00 74 1007.8
20260509150039 28 296 0.0 6.4 0.00 0.00 0.00 77 1007.9
20260509144542 27 360 0.0 4.8 0.00 0.00 0.00 82 1007.8
20260509143030 26 61 0.0 3.2 0.00 0.00 0.00 88 1007.8
20260509141534 25 253 0.0 8.0 0.00 0.00 0.00 91 1007.6
20260509140031 24 272 0.0 0.0 0.00 0.00 0.00 92 1007.2
20260509134517 23 220 0.0 1.6 0.00 0.00 0.00 92 1007.1
20260509133012 22 145 0.0 4.8 0.00 0.00 0.00 92 1007.6
20260509131514 22 172 0.0 0.0 0.00 0.00 0.00 92 1007.4
20260509130005 22 101 0.0 0.0 0.00 0.00 0.00 92 1007.8
20260509124504 21 56 0.0 0.0 0.00 0.00 0.00 91 1008.0
20260509123002 21 56 0.0 0.0 0.00 0.00 0.00 91 1007.9
20260509121659 21 348 0.0 1.6 0.00 0.00 0.00 91 1007.8
20260509120106 21 67 0.0 0.0 0.00 0.00 0.00 91 1008.1
20260509114609 21 67 0.0 0.0 0.00 0.00 0.00 91 1007.9
20260509113058 22 67 0.0 0.0 0.00 0.00 0.00 91 1008.6
20260509111554 22 335 0.0 0.0 0.00 0.00 0.00 91 1008.9
20260509110104 22 242 0.0 0.0 0.00 0.00 0.00 91 1009.2
20260509104558 22 54 0.0 0.0 0.00 0.00 0.00 91 1009.2
20260509103051 22 54 0.0 0.0 0.00 0.00 0.00 90 1009.2
20260509101552 22 54 0.0 0.0 0.00 0.00 0.00 90 1009.2
20260509100047 22 68 0.0 0.0 0.00 0.00 0.00 90 1008.7
20260509094548 22 68 0.0 0.0 0.00 0.00 0.00 90 1008.0
20260509093048 22 68 0.0 0.0 0.00 0.00 0.00 90 1007.6
20260509091545 22 68 0.0 0.0 0.00 0.00 0.00 90 1007.5
20260509090051 22 68 0.0 0.0 0.00 0.00 0.00 90 1007.5
20260509084551 22 68 0.0 0.0 0.00 0.00 0.00 90 1007.7
20260509083046 22 68 0.0 0.0 0.00 0.00 0.00 90 1008.0
20260509081544 22 68 0.0 0.0 0.00 0.00 0.00 89 1008.0
20260509080040 22 68 0.0 0.0 0.00 0.00 0.00 89 1008.2
20260509074547 22 68 0.0 0.0 0.00 0.00 0.00 89 1008.3
20260509073038 22 68 0.0 3.2 0.00 0.00 0.00 88 1008.5
20260509071539 22 82 0.0 0.0 0.00 0.00 0.00 88 1008.6
20260509070036 22 96 0.0 0.0 0.00 0.00 0.00 88 1008.7
20260509064535 22 321 0.0 0.0 0.00 0.00 0.00 88 1008.2
20260509063035 22 96 0.0 3.2 0.00 0.00 0.00 88 1008.5
20260509061531 22 339 0.0 4.8 0.00 0.00 0.00 87 1008.0
20260509060030 22 127 0.0 1.6 0.00 0.00 0.00 87 1007.9
20260509054540 22 340 0.0 1.6 0.00 0.00 0.00 87 1008.0
20260509053100 22 61 0.0 4.8 0.00 0.00 0.00 86 1007.3
20260509051526 22 74 0.0 4.8 0.00 0.00 0.00 86 1007.0
20260509050036 22 76 0.0 1.6 0.00 0.00 0.00 86 1006.9
20260509044521 22 355 0.0 0.0 0.00 0.00 0.00 86 1007.2
20260509043020 22 76 0.0 0.0 0.00 0.00 0.00 85 1007.5
20260509041520 22 76 0.0 0.0 0.00 0.00 0.00 85 1007.6
20260509040020 23 76 0.0 0.0 0.00 0.00 0.00 84 1007.7
20260509034519 23 76 0.0 0.0 0.00 0.00 0.00 83 1007.7
20260509033018 23 76 0.0 0.0 0.00 0.00 0.00 83 1007.3
20260509031518 23 76 0.0 0.0 0.00 0.00 0.00 82 1007.3
20260509030027 23 76 0.0 1.6 0.00 0.00 0.00 82 1007.1
20260509024518 23 76 0.0 0.0 0.00 0.00 0.00 81 1007.1
20260509023025 23 76 0.0 0.0 0.00 0.00 0.00 81 1007.0
20260509021516 23 121 0.0 3.2 0.00 0.00 0.00 81 1006.8
20260509020016 24 89 0.0 6.4 0.00 0.00 0.00 80 1006.5
20260509014514 24 65 0.0 3.2 0.00 0.00 0.00 80 1006.6
20260509013014 25 67 0.0 4.8 0.00 0.00 0.00 79 1006.2
20260509011514 25 11 0.0 4.8 0.00 0.00 0.00 79 1006.3
20260509010015 25 91 0.0 0.0 0.00 0.00 0.00 78 1006.3
20260509004514 25 119 0.0 3.2 0.00 0.00 0.00 78 1006.2
20260509003011 25 49 0.0 4.8 0.00 0.00 0.00 77 1006.3
20260509001511 25 53 0.0 6.4 0.00 0.00 0.00 77 1006.3
20260509000012 25 109 0.0 3.2 0.00 0.00 0.00 76 1006.4